St. Paul, MN

1:50 PM CST on December 16, 2017 (GMT -0600)
Saint Paul Downtown-Holman

Weather History for KSTP - October, 2013

Change the Weather History Date:

Monday, October 7, 2013

  Actual Average Record
Temperature  
Mean Temperature 54 °F -  
Max Temperature 66 °F 62 °F 86 °F (2003)
Min Temperature 42 °F 40 °F 26 °F (2012)
Degree Days  
Heating Degree Days 11    
Growing Degree Days 4 (Base 50)    
Moisture  
Dew Point 43 °F    
Average Humidity 74    
Maximum Humidity 97    
Minimum Humidity 36    
Precipitation  
Precipitation 0.00 in - - ()
Sea Level Pressure  
Sea Level Pressure 29.94 in    
Wind  
Wind Speed 2 mph (NW)    
Max Wind Speed 13 mph    
Max Gust Speed 16 mph    
Visibility 10 miles    
Events      
Averages and records for this station are not official NWS values.
T = Trace of Precipitation, MM = Missing Value Source: NWS Daily Summary

Daily Weather History Graph

Daily Weather History Graph

Search for Another Location

Airport or City:

Trip Planner

Search our weather history database for the weather conditions in past years. The results will help you decide how hot, cold, wet, or windy it might be!

Date:

Astronomy

Oct. 07, 2013 Rise Set
Actual Time 7:18 AM CDT 6:41 PM CDT
Civil Twilight 6:48 AM CDT 7:10 PM CDT
Nautical Twilight 6:14 AM CDT 7:44 PM CDT
Astronomical Twilight 5:40 AM CDT 8:18 PM CDT
Moon 10:16 AM CDT (10/7) 8:17 PM CDT (10/7)
Length of Visible Light 12h 21m
Length of Day
11h 23m
Waxing Crescent, 9% of the Moon is Illuminated
Oct 7
Waxing Crescent
Oct 11
First Quarter
Oct 18
Full
Oct 26
Last Quarter
Nov 3
New

Hourly Weather History & Observations

Time (CDT) Temp. Dew Point Humidity Pressure Visibility Wind Dir Wind Speed Gust Speed Precip Events Conditions
12:53 AM 46.0 °F 44.1 °F 93% 29.86 in 10.0 mi Calm Calm - N/A   Clear
1:53 AM 46.9 °F 44.1 °F 90% 29.86 in 10.0 mi Calm Calm - N/A   Partly Cloudy
2:53 AM 44.1 °F 42.1 °F 93% 29.85 in 10.0 mi Calm Calm - N/A   Partly Cloudy
3:53 AM 44.1 °F 43.0 °F 96% 29.85 in 10.0 mi Calm Calm - N/A   Overcast
4:53 AM 45.0 °F 43.0 °F 93% 29.85 in 10.0 mi Calm Calm - N/A   Overcast
5:53 AM 42.1 °F 41.0 °F 96% 29.87 in 10.0 mi Calm Calm - N/A   Scattered Clouds
6:53 AM 45.0 °F 42.1 °F 90% 29.88 in 10.0 mi Calm Calm - N/A   Partly Cloudy
7:53 AM 43.0 °F 42.1 °F 97% 29.91 in 8.0 mi Calm Calm - N/A   Clear
8:53 AM 48.0 °F 44.1 °F 86% 29.93 in 10.0 mi WNW 4.6 mph - N/A   Clear
9:53 AM 52.0 °F 46.0 °F 80% 29.95 in 10.0 mi NW 3.5 mph - N/A   Clear
10:53 AM 55.9 °F 45.0 °F 67% 29.97 in 10.0 mi NW 4.6 mph - N/A   Clear
11:53 AM 60.1 °F 44.1 °F 55% 29.97 in 10.0 mi NW 5.8 mph - N/A   Clear
12:53 PM 62.1 °F 43.0 °F 50% 29.97 in 10.0 mi WNW 9.2 mph - N/A   Clear
1:53 PM 64.0 °F 41.0 °F 43% 29.96 in 10.0 mi NW 5.8 mph 16.1 mph N/A   Clear
2:53 PM 64.9 °F 39.9 °F 40% 29.96 in 10.0 mi NW 12.7 mph - N/A   Clear
3:53 PM 66.0 °F 39.0 °F 37% 29.96 in 10.0 mi Variable 5.8 mph - N/A   Clear
4:53 PM 66.0 °F 37.9 °F 36% 29.96 in 10.0 mi WNW 6.9 mph - N/A   Clear
5:53 PM 64.0 °F 37.9 °F 38% 29.96 in 10.0 mi WSW 4.6 mph - N/A   Clear
6:53 PM 55.0 °F 45.0 °F 69% 29.97 in 10.0 mi Calm Calm - N/A   Clear
7:53 PM 53.1 °F 46.0 °F 77% 29.99 in 10.0 mi Calm Calm - N/A   Clear
8:53 PM 51.1 °F 46.0 °F 83% 30.00 in 10.0 mi Calm Calm - N/A   Clear
9:53 PM 50.0 °F 46.9 °F 89% 30.00 in 10.0 mi Calm Calm - N/A   Clear
10:53 PM 50.0 °F 46.0 °F 86% 30.00 in 10.0 mi East 3.5 mph - N/A   Clear
11:53 PM 48.9 °F 46.0 °F 90% 29.99 in 10.0 mi Calm Calm - N/A   Clear